Weather History for KFTW - April, 2013

Change the Weather History Date:

Tuesday, April 30, 2013

  Actual Average Record
Temperature  
Mean Temperature 70 °F -  
Max Temperature 82 °F 78 °F 91 °F (2002)
Min Temperature 60 °F 57 °F 46 °F (1998)
Cooling Degree Days 6    
Growing Degree Days 20 (Base 50)    
Moisture  
Dew Point 62 °F    
Average Humidity 75    
Maximum Humidity 100    
Minimum Humidity 52    
Precipitation  
Precipitation 0.00 in - - ()
Sea Level Pressure  
Sea Level Pressure 29.77 in    
Wind  
Wind Speed 10 mph (SSE)    
Max Wind Speed 17 mph    
Max Gust Speed 21 mph    
Visibility 10 miles    
Events      
Averages and records for this station are not official NWS values.
T = Trace of Precipitation, MM = Missing Value Source: NWS Daily Summary

Daily Weather History Graph

Daily Weather History Graph

Search for Another Location

Airport or City:

Trip Planner

Search our weather history database for the weather conditions in past years. The results will help you decide how hot, cold, wet, or windy it might be!

Date:

Astronomy

Apr. 30, 2013 Rise Set
Actual Time 6:42 AM CDT 8:10 PM CDT
Civil Twilight 6:16 AM CDT 8:37 PM CDT
Nautical Twilight 5:45 AM CDT 9:08 PM CDT
Astronomical Twilight 5:12 AM CDT 9:41 PM CDT
Moon 12:31 AM CDT (4/30) 11:16 AM CDT (4/30)
Length of Visible Light 14h 20m
Length of Day
13h 27m
Waning Gibbous, 70% of the Moon is Illuminated
Apr 30
Waning Gibbous
May 2
Last Quarter
May 9
New
May 17
First Quarter
May 24
Full

Hourly Weather History & Observations

Time (CDT) Temp. Heat Index Dew Point Humidity Pressure Visibility Wind Dir Wind Speed Gust Speed Precip Events Conditions
12:53 AM 68.0 °F - 59.0 °F 73% 29.79 in 10.0 mi South 11.5 mph - N/A   Clear
1:53 AM 66.0 °F - 57.9 °F 75% 29.78 in 10.0 mi South 6.9 mph - N/A   Clear
2:53 AM 64.9 °F - 57.9 °F 78% 29.80 in 10.0 mi South 8.1 mph - N/A   Clear
3:53 AM 63.0 °F - 59.0 °F 87% 29.77 in 10.0 mi South 9.2 mph - N/A   Clear
4:53 AM 61.0 °F - 59.0 °F 93% 29.78 in 10.0 mi South 8.1 mph - N/A   Clear
5:53 AM 60.1 °F - 59.0 °F 96% 29.77 in 10.0 mi SSE 8.1 mph - N/A   Clear
6:53 AM 60.1 °F - 60.1 °F 100% 29.79 in 10.0 mi SSE 6.9 mph - N/A   Clear
7:53 AM 63.0 °F - 62.1 °F 97% 29.80 in 10.0 mi South 8.1 mph - N/A   Clear
8:53 AM 66.0 °F - 63.0 °F 90% 29.81 in 10.0 mi South 10.4 mph - N/A   Mostly Cloudy
9:34 AM 64.4 °F - 62.6 °F 94% 29.82 in 10.0 mi South 9.2 mph - N/A   Mostly Cloudy
9:53 AM 64.9 °F - 62.1 °F 90% 29.81 in 10.0 mi SSW 9.2 mph - N/A   Overcast
10:21 AM 68.0 °F - 62.6 °F 83% 29.82 in 10.0 mi SSE 9.2 mph - N/A   Scattered Clouds
10:53 AM 71.1 °F - 63.0 °F 75% 29.79 in 10.0 mi SSE 8.1 mph - N/A   Clear
11:53 AM 73.9 °F - 64.0 °F 71% 29.79 in 10.0 mi SE 12.7 mph 19.6 mph N/A   Partly Cloudy
12:53 PM 75.9 °F - 64.0 °F 67% 29.78 in 10.0 mi SE 15.0 mph - N/A   Clear
1:53 PM 77.0 °F - 64.0 °F 64% 29.77 in 10.0 mi SSE 17.3 mph - N/A   Clear
2:53 PM 79.0 °F - 64.0 °F 60% 29.75 in 10.0 mi South 11.5 mph - N/A   Partly Cloudy
3:53 PM 81.0 °F 82.2 °F 63.0 °F 54% 29.73 in 10.0 mi SSE 15.0 mph 20.7 mph N/A   Partly Cloudy
4:53 PM 81.0 °F 81.9 °F 62.1 °F 52% 29.71 in 10.0 mi SSE 13.8 mph 20.7 mph N/A   Clear
5:53 PM 81.0 °F 81.9 °F 62.1 °F 52% 29.71 in 10.0 mi ESE 12.7 mph - N/A   Clear
6:53 PM 79.0 °F - 63.0 °F 58% 29.71 in 10.0 mi ESE 12.7 mph - N/A   Clear
7:53 PM 75.9 °F - 63.0 °F 64% 29.73 in 10.0 mi ESE 9.2 mph - N/A   Clear
8:53 PM 75.0 °F - 61.0 °F 62% 29.73 in 10.0 mi ESE 10.4 mph - N/A   Clear
9:53 PM 73.0 °F - 62.1 °F 68% 29.75 in 10.0 mi ESE 9.2 mph - N/A   Clear
10:53 PM 72.0 °F - 62.1 °F 71% 29.77 in 10.0 mi SE 15.0 mph 19.6 mph N/A   Clear
11:53 PM 70.0 °F - 63.0 °F 78% 29.78 in 10.0 mi SSE 11.5 mph - N/A   Clear